STARLINK-1114, 44927

Orbit data source: Space-Track

STARLINK-1114, 44927 is a payload satellite owned by SpaceX/Seattle (US) in LEO that was launched on Tue, 07 Jan 2020 UTC via an FALCON 9 launch vehicle from the Air Force Eastern Test Range (AFETR). Payload-class satellites include a variety of spacecraft equipped with specific instruments for various scientific and technological missions. These include communications satellites like Starlink; space stations such as the ISS; scientific satellites like the Hubble; Earth observation satellites from companies like Planet Labs, Umbra, and HawkEye 360; GPS; miniature CubeSats for education and research; and military/defense satellites.

Loading next visibility...
Identifier
44927, 2020-001P
Orbit
LEO
Country
Flag of USUS
Related business
Manufacturer
SpaceX/Seattle
Mission
Operational Commercial Communications
Bus & Motor
STARLINK, Unknown motor
Mass
260 kg wet, ~248 kg dry
Launch date (UTC)
2020-01-07 (6 years ago)
Launch vehicle
FALCON 9
Launch site
Air Force Eastern Test Range (AFETR)
Object type
Payload
Rocket body
Debris
Shape & HBR
Box + 1 Pan, 10.1 m
Radar Cross Section
13.562 m², Large (>1 m²)

Expand to show TLE details & history
Last TLE update: 19 hours ago

TLE from 19 hours ago
0 STARLINK-1114
1 44927U 20001P   25287.94448060  .00000123  00000-0  27139-4 0  9990
2 44927  53.0542 280.8981 0001576  92.4022 267.7148 15.06400144317888
Epoch: 2025-10-14T22:40Z
TLE epoch observation values (Epoch: 2025-10-14T22:40:03.123Z)
Latitude
0.00001°
Longitude
-82.84055°
Altitude
548.134 km
Speed
7.589 km/s
True Right ascension
18h 43m 35s
True Declination
0° 00' 00"
Sunlit
Object was in daylight at epoch
Visualization orbit readout
Latitude
Unknown
Longitude
Unknown
Altitude
Unknown
Speed
Unknown
Apparent Right ascension
Unknown
Apparent Declination
Unknown
Sunlit
N/A
Visualization observer readout
Local Sidereal Time
11:52:03
Azimuth
Unknown
Elevation
Unknown
Doppler factor
Unknown
Orbital elements
Apogee altitude
548.573 km
Perigee altitude
546.39 km
Semi-major axis
6,925.619 km
Eccentricity
0.00016
Inclination
53.0542°
RAAN
280.8981°
Arg. of periapsis
92.4022°
True anomaly
267.69675°
Mean anomaly
267.7148°
Eccentric anomaly
267.70578°
Mean motion
3.76578 °/min
Orbital period
95.6 mins
BSTAR
0.000027139
Loading maneuver chart data...
Computing Atmospheric mass density...

Documentation

Showing up to 5 results
|